Corsicana, TX

4:35 AM CDT on August 21, 2017 (GMT -0500)
Campbell-Corsicana Municipal

Weather History for KCRS - February, 2014

Change the Weather History Date:

Tuesday, February 18, 2014

  Actual Average (KTYR) Record (KTYR)
Temperature  
Mean Temperature 65 °F -  
Max Temperature 78 °F 60 °F 86 °F (1986)
Min Temperature 52 °F 41 °F 5 °F (1910)
Growing Degree Days 15 (Base 50)    
Moisture  
Dew Point 49 °F    
Average Humidity 59    
Maximum Humidity 87    
Minimum Humidity 40    
Precipitation  
Precipitation 0.00 in - - ()
Sea Level Pressure  
Sea Level Pressure 29.99 in    
Wind  
Wind Speed 9 mph (SSE)    
Max Wind Speed 22 mph    
Max Gust Speed 28 mph    
Visibility 10 miles    
Events      
Averages and records for this station are not official NWS values.
T = Trace of Precipitation, MM = Missing Value Source: NWS Daily Summary

Daily Weather History Graph

Daily Weather History Graph

Search for Another Location

Airport or City:

Trip Planner

Search our weather history database for the weather conditions in past years. The results will help you decide how hot, cold, wet, or windy it might be!

Date:

Astronomy

Feb. 18, 2014 Rise Set
Actual Time 7:04 AM CST 6:14 PM CST
Civil Twilight 6:39 AM CST 6:39 PM CST
Nautical Twilight 6:11 AM CST 7:08 PM CST
Astronomical Twilight 5:43 AM CST 7:36 PM CST
Moon 9:52 PM CST (2/18) 8:52 AM CST (2/18)
Length of Visible Light 11h 59m
Length of Day
11h 09m
Waning Gibbous, 87% of the Moon is Illuminated
Feb 18
Waning Gibbous
Feb 22
Last Quarter
Mar 1
New
Mar 8
First Quarter
Mar 16
Full

Hourly Weather History & Observations

Time (CST) Temp. Dew Point Humidity Pressure Visibility Wind Dir Wind Speed Gust Speed Precip Events Conditions
12:53 AM 55.0 °F 30.9 °F 40% 30.11 in 10.0 mi NE 5.8 mph - N/A   Clear
1:53 AM 55.0 °F 30.9 °F 40% 30.10 in 10.0 mi NE 5.8 mph - N/A   Clear
2:53 AM 53.1 °F 32.0 °F 45% 30.09 in 10.0 mi NNE 3.5 mph - N/A   Clear
3:53 AM 53.1 °F 30.9 °F 43% 30.06 in 10.0 mi ENE 5.8 mph - N/A   Clear
4:53 AM 52.0 °F 32.0 °F 47% 30.05 in 10.0 mi East 4.6 mph - N/A   Clear
5:53 AM 52.0 °F 34.0 °F 50% 30.04 in 10.0 mi East 6.9 mph - N/A   Clear
6:53 AM 52.0 °F 34.0 °F 50% 30.04 in 10.0 mi East 3.5 mph - N/A   Clear
7:53 AM 53.1 °F 35.1 °F 50% 30.06 in 10.0 mi SE 4.6 mph - N/A   Clear
8:53 AM 57.0 °F 36.0 °F 45% 30.05 in 10.0 mi SSE 10.4 mph - N/A   Clear
9:53 AM 62.1 °F 45.0 °F 53% 30.04 in 10.0 mi South 11.5 mph - N/A   Clear
10:53 AM 68.0 °F 55.9 °F 65% 30.04 in 9.0 mi South 13.8 mph - N/A   Partly Cloudy
11:08 AM 66.9 °F 57.0 °F 70% 30.04 in 9.0 mi SSW 11.5 mph - N/A   Mostly Cloudy
11:53 AM 70.0 °F 60.1 °F 71% 30.01 in 8.0 mi SSW 13.8 mph - N/A   Overcast
12:41 PM 73.0 °F 59.0 °F 61% 30.00 in 8.0 mi SSW 21.9 mph 26.5 mph N/A   Scattered Clouds
12:53 PM 73.0 °F 60.1 °F 64% 29.99 in 9.0 mi SSW 15.0 mph 24.2 mph N/A   Partly Cloudy
1:53 PM 75.9 °F 60.1 °F 58% 29.95 in 9.0 mi SSW 17.3 mph 25.3 mph N/A   Partly Cloudy
2:53 PM 78.1 °F 59.0 °F 52% 29.91 in - South 20.7 mph 26.5 mph N/A   Scattered Clouds
3:53 PM 77.0 °F 57.9 °F 52% 29.90 in - SSW 16.1 mph 27.6 mph N/A   Partly Cloudy
4:53 PM 75.9 °F 59.0 °F 56% 29.88 in 10.0 mi North - - N/A   Clear
5:53 PM 75.0 °F 57.9 °F 55% 29.88 in 10.0 mi South 12.7 mph - N/A   Clear
6:53 PM 70.0 °F 57.9 °F 65% 29.89 in 10.0 mi South 8.1 mph - N/A   Clear
7:53 PM 69.1 °F 57.9 °F 68% 29.89 in 10.0 mi South 6.9 mph - N/A   Clear
8:53 PM 66.9 °F 59.0 °F 76% 29.91 in 10.0 mi South 9.2 mph - N/A   Clear
9:53 PM 64.9 °F 59.0 °F 81% 29.92 in 10.0 mi South 9.2 mph - N/A   Clear
10:53 PM 64.0 °F 60.1 °F 87% 29.94 in 8.0 mi South 8.1 mph - N/A   Clear
11:53 PM 64.9 °F 61.0 °F 87% 29.92 in 10.0 mi South 11.5 mph - N/A   Clear